Starlink 6144

operational
NORAD ID: 56894 Int'l Des: 2023-083 Owner: SPXS Country: US Constellation: starlink
LEOCIRCULAR

About Starlink 6144

Description loading...

Live Position

Loading 3D Globe...

Upcoming Passes

Altitude History

Altitude vs Time

uPlot chart will show altitude changes over time

Two-Line Element Set

1 56894U 23083U 26035.32323142 -.00000515 00000-0 -23079-4 0 9992
2 56894 43.0012 262.8749 0001321 266.3569 93.7123 15.02530610146779
Epoch: Feb 4, 2026 • Age: 18 hours

Current Status

Altitude 559.9 km
Velocity 7.59 km/s
Sub-Earth Point 27.06°N, 118.3°W
Launch Date Jun 12, 2023
Age 2.6 years
Type internet

Technical Details

Classification Payload
Mass 305.00 kg
Dry Mass 290.00 kg
Total Mass 305.00 kg
Length 0.20 m
Diameter 2.80 m
Span 9.00 m
Shape Box + pan
Manufacturer SPXS
Bus Type Starlink
Phase Status In Orbit
Owner/State SPXS/US

Large Constellations

Loading constellations...